Погода в Вепринце

Россия / Орловская область     52°32′03″N   37°04′17″E
темп.,
°C
ветер,
м/с
пор.,
м/с
влажн.,
%
обл.,
%
осадки,
мм/ч
давл.,
гПа
погр.,
м
5 августа, чт
чт500:00+15св11670 0.0 101811
03:00+14юв117096 0.0 101811
06:00+16вюв2269100 0.0 101732
09:00+21ююв345288 0.0 1017404
12:00+24ю3340100 0.0 10161060
15:00+26юв3637100 0.0 10151591
18:00+24ююв4648100 0.1 1013282
21:00+20ююз3770100 0.3 1013125
6 августа, пт
пт600:00+20ю226798 0.1 101328
03:00+20ююв2362100 0.1 101257
06:00+19юв356090 0.0 1011115
09:00+24ююв4744100 0.0 1010395
12:00+29ю583414 0.0 10091335
15:00+32ю683280 0.0 10072734
18:00+25ююв10166274 0.1 1007525
21:00+22ю41068100 0.3 1007179
7 августа, сб
сб700:00+22юв4769100 0.0 1007142
03:00+19ююв398468 0.6 1008193
06:00+18ююв31684100 0.3 1009538
09:00+22юв5137191 0.5 1008606
12:00+27ююв91141100 0.1 10081186
15:00+27ю61048100 0.3 10091055
18:00+26ююз4758100 0.3 1008602
21:00+22зсз2268100 0.3 100926
8 августа, вс
вс800:00+20ссз51091100 1.8 1011390
03:00+19зсз2496100 9.8 1013221
06:00+18ссз3492100 7.2 1012114
09:00+20с4482100 7.2 1014633
12:00+23с4562100 0.8 1015763
15:00+24с3356100 1.6 1015781
18:00+23ссз3462100 0.1 1016194
21:00+20с346699 0.1 101766
9 августа, пн
пн900:00+19св226997 0.0 101819
03:00+18ссв337461 0.0 101851
06:00+17ссв347668 0.0 101881
09:00+22св345995 0.0 1018446
12:00+25св235087 0.0 1018980
15:00+27с324610 0.0 10171618
18:00+26с32500 0.0 10171205
21:00+22ссв236123 0.0 101757